Location: Mococo
(38.0255°N, 122.1161°W)
Time: 05:10:59
(UTC+00:00)

Intercosmos 25 Rocket - Pass Details

Date: 13 February 2026
Orbit: 435 x 2957 km, 82.6° (Epoch: 5 March)

Event Time Altitude Azimuth Distance (km) Brightness Sun altitude
Exits shadow 13:53:59 - 336° (NNW) 1,764 5.6 -13.7°
Reaches altitude 10° 13:54:28 10° 333° (NNW) 1,566 5.3 -13.6°
Maximum altitude 13:57:21 33° 267° (W) 765 3.5 -13.0°
Drops below altitude 10° 14:00:23 10° 201° (SSW) 1,642 5.6 -12.4°
Sets 14:02:45 0° 191° (SSW) 2,672 6.8 -12.0°
